www.pogodaiklimat.ru

Погода и климат >> Архив погоды >> Канада >> Medicine Hat Arpt


ПОГОДА в Medicine Hat Arpt

  • Прогноз погоды в Medicine Hat Arpt
  • Монитор погоды в Medicine Hat Arpt
  • Климат города

АРХИВ ПОГОДЫ в Medicine Hat Arpt

Время (UTC), дата Ветер
(напр.,м/с)
 
Видим.   Явления Облачность Т
(С)
Тd
(С)
f
(%)
Тe
(С)
Тes
(С)
Комфортность P
(гПа)
Po
(гПа)
Тmin
(С)
Tmax
(С)
R
(мм)
S
(см)
09 17.02 Ю 9 н/о н/о -23.9 -26.3 80 -38 -38 опасность
обморожения
1005.7 995.9
12 17.02 Ю 3 н/о н/о -23.4 -25.7 81 -32 -32 опасность
обморожения
1004.4 994.6 -25.7 -24.5 64
15 17.02 ЮВ 2 н/о н/о -22.9 -25.1 82 -28 -28 1004.7 994.9
18 17.02 С 4 н/о н/о -22.6 -24.8 82 -32 -32 опасность
обморожения
1005.4 995.6 -26.9 -22.4
21 17.02 З 3 н/о н/о -25.6 -27.9 81 -34 -34 опасность
обморожения
1007.0 997.2
00 18.02 Ю 4 н/о н/о -24.9 -27.3 80 -35 -35 опасность
обморожения
1008.4 998.6 -26.3 -22.4
03 18.02 ЮЗ 7 н/о н/о -23.3 -25.5 82 -36 -36 опасность
обморожения
1010.1 1000.3
06 18.02 ЮЗ 5 н/о н/о -24.3 -26.5 82 -36 -36 опасность
обморожения
1012.4 1002.5 -26.3 -22.4 4
09 18.02 Ю 5 н/о н/о -25.5 -27.9 80 -37 -37 опасность
обморожения
1014.5 1004.6
12 18.02 Ю 6 н/о н/о -29.4 -31.9 79 -42 -42 опасность
обморожения
1015.8 1005.8 -29.4 -22.4 64
15 18.02 Ю 6 н/о н/о -31.8 -34.5 77 -46 -46 опасность
обморожения
1016.4 1006.4
18 18.02 Ю 7 н/о н/о -27.3 -30.2 76 -41 -41 опасность
обморожения
1016.6 1006.6 -32.8 -23.6
21 18.02 Ю 5 н/о н/о -29.3 -32.2 76 -41 -41 опасность
обморожения
1016.5 1006.5
00 19.02 ЮЗ 1 н/о н/о -28.9 -31.7 77 -33 -33 опасность
обморожения
1016.1 1006.1 -33.3 -26.6
03 19.02 С 2 н/о н/о -30.8 -33.8 75 -39 -39 опасность
обморожения
1016.5 1006.4
06 19.02 С 4 н/о н/о -33.7 -37.0 72 -45 -45 опасность
обморожения
1016.8 1006.7 -33.8 -23.6 20
09 19.02 С 6 н/о н/о -34.2 -37.6 71 -49 -49 опасность
обморожения
1017.5 1007.4
12 19.02 С 8 н/о н/о -33.9 -37.3 71 -50 -50 опасность
обморожения
1019.1 1009.0 -35.0 -23.6 64
15 19.02 С 10 н/о н/о -33.2 -36.7 71 -51 -51 опасность
обморожения
1019.8 1009.6
18 19.02 С 9 н/о н/о -34.5 -38.0 70 -52 -52 опасность
обморожения
1020.9 1010.7 -35.4 -31.3
21 19.02 С 8 н/о н/о -35.8 -39.3 70 -53 -53 опасность
обморожения
1022.4 1012.1
00 20.02 С 8 н/о н/о -35.9 -39.6 69 -53 -53 опасность
обморожения
1024.3 1014.0 -36.1 -32.1
03 20.02 С 6 н/о н/о -33.1 -36.5 71 -47 -47 опасность
обморожения
1026.2 1015.9
06 20.02 С 3 н/о н/о -34.7 -38.3 70 -44 -44 опасность
обморожения
1029.2 1018.9 -36.3 -31.3 15
09 20.02 С 3 н/о н/о -36.4 -40.0 69 -46 -46 опасность
обморожения
1033.4 1023.0
12 20.02 С 2 н/о н/о -36.3 -40.1 68 -45 -45 опасность
обморожения
1034.3 1023.9 -36.7 -31.3 64
15 20.02 С 2 н/о н/о -34.7 -38.2 70 -43 -43 опасность
обморожения
1033.8 1023.4
18 20.02 СВ 2 н/о н/о -35.2 -38.8 69 -44 -44 опасность
обморожения
1034.3 1023.9 -36.7 -32.2
21 20.02 СВ 2 н/о н/о -36.0 -39.7 69 -45 -45 опасность
обморожения
1035.1 1024.7
00 21.02 С 2 н/о н/о -36.7 -40.6 67 -44 -44 опасность
обморожения
1036.0 1025.5 -37.2 -32.2
03 21.02 С 2 н/о н/о -37.6 -41.5 67 -45 -45 опасность
обморожения
1035.5 1025.1
06 21.02 С 2 н/о н/о -37.9 -41.9 66 -45 -45 опасность
обморожения
1034.2 1023.8 -38.0 -32.2
09 21.02 С 2 н/о н/о -37.6 -41.6 66 -47 -47 опасность
обморожения
1033.6 1023.2
12 21.02 С 2 н/о н/о -37.2 -41.1 67 -46 -46 опасность
обморожения
1033.4 1023.0 -38.0 -32.2 63
15 21.02 н/о н/о -37.9 -41.8 67 1032.7 1022.2
18 21.02 С 3 н/о н/о -36.0 -39.9 67 -46 -46 опасность
обморожения
1032.8 1022.4 -38.0 -35.1
21 21.02 С 3 н/о н/о -35.6 -39.4 68 -45 -45 опасность
обморожения
1032.6 1022.2
00 22.02 С 6 н/о н/о -37.6 -41.3 68 -53 -53 опасность
обморожения
1035.3 1024.8 -38.0 -34.6
03 22.02 С 6 н/о н/о -37.1 -41.0 67 -52 -52 опасность
обморожения
1034.6 1024.1
06 22.02 С 8 н/о н/о -35.2 -39.1 67 -52 -52 опасность
обморожения
1033.1 1022.7 -38.1 -34.6 6
09 22.02 С 9 н/о н/о -34.3 -37.9 70 -52 -52 опасность
обморожения
1032.1 1021.7
12 22.02 С 9 н/о н/о -34.6 -38.2 70 -52 -52 опасность
обморожения
1026.0 1015.7 -38.1 -34.6 63
15 22.02 С 12 н/о н/о -34.6 -38.2 70 -54 -54 опасность
обморожения
1022.8 1012.5
18 22.02 С 11 н/о н/о -33.2 -36.7 71 -52 -52 опасность
обморожения
1021.2 1011.0 -38.1 -32.3
21 22.02 СЗ 9 н/о н/о -33.1 -36.5 71 -50 -50 опасность
обморожения
1021.3 1011.1
00 23.02 С 10 н/о н/о -32.5 -35.8 72 -50 -50 опасность
обморожения
1021.3 1011.1 -35.9 -32.5
03 23.02 С 10 н/о н/о -31.9 -35.2 72 -50 -50 опасность
обморожения
1021.3 1011.1
06 23.02 С 10 н/о н/о -31.8 -35.0 73 -49 -49 опасность
обморожения
1021.5 1011.3 -35.9 -31.5 2
09 23.02 С 11 н/о н/о -31.4 -34.6 73 -49 -49 опасность
обморожения
1022.3 1012.1
12 23.02 С 9 н/о н/о -31.4 -34.6 73 -48 -48 опасность
обморожения
1023.1 1012.9 -32.7 -31.5 63
15 23.02 С 11 н/о н/о -31.4 -34.7 73 -49 -49 опасность
обморожения
1023.6 1013.4
18 23.02 С 9 н/о н/о -32.1 -35.4 72 -49 -49 опасность
обморожения
1023.7 1013.5 -33.4 -31.1
21 23.02 СЗ 9 н/о н/о -33.2 -36.6 71 -51 -51 опасность
обморожения
1023.7 1013.5
00 24.02 С 10 н/о н/о -33.5 -36.9 71 -51 -51 опасность
обморожения
1023.2 1013.0 -33.5 -31.1
03 24.02 С 8 н/о н/о -34.0 -37.4 71 -50 -50 опасность
обморожения
1022.0 1011.8

 

Местоположение метеостанции Medicine Hat Arpt (Канада): широта 50.02 долгота -110.70 высота над уровнем моря 716 м.

В архиве по умолчанию представлена погода в Medicine Hat Arpt за последнюю неделю. Архивные данные за месяц целиком и за предыдущие месяцы, начиная с января 2011 года, Вы можете получить, выбрав интересующий диапазон дат из раскрывающегося списка и нажав кнопку "Ввод!".

Внимание! Время в таблицах - всемирное. Для получения местного времени необходимо прибавить поправку, которая в Medicine Hat Arpt равна -7 ч.

Смотрите также архив погоды в соседних городах и на ближайших метеорологических станциях:

Погода в Seven Persons Agdm (Канада) (18 км)
Погода в Irvine Agcm (Канада) (32 км)
Погода в Bow Island Agdm (Канада) (46 км)
Погода в Schuler Radar (Канада) (48 км)
Погода в Schuler Agdm (Канада) (59 км)
Погода в Bow Island (Канада) (60 км)
Погода в Grassy Lake (Канада) (73 км)
Погода в Foremost Agdm (Канада) (79 км)
Погода в Etzicom Agcm (Канада) (81 км)
Погода в Atlee (Канада) (89 км)

Пояснения к столбцам:

Ветер - указаны скорость ветра в м/с - средняя за 10 мин, порывы в срок и между сроками (в фигурных скобках) и направление, откуда дует ветер: С - северный, СВ - северо-восточный, В - восточный, ЮВ - юго-восточный, Ю - южный, ЮЗ - юго-западный, З - западный, СЗ - северо-западный.
Видимость - горизонтальная дальность видимости в метрах или километрах. При видимости от 1 до 10 км при отсутствии осадков обычно наблюдается дымка, при ухудшении видимости до 1 км и менее - туман. В сухую погоду видимость может ухудшаться дымом, пылью или мглою.
Явления - указаны атмосферные явления, наблюдавшиеся в срок или в последний час перед сроком; фигурными скобками обозначены явления, наблюдавшиеся между сроками (за 1-3 часа до срока); квадратными скобками обозначены град или гололедные отложения с указанием их диаметра в мм.
Облачность - указаны через наклонную черту общая и нижняя облачность в баллах и высота нижней границы облаков в метрах; квадратными скобками обозначены формы облаков: Ci - перистые, Cs - перисто-слоистые, Cc - перисто-кучевые, Ac - высококучевые, As - высокослоистые, Sc - слоисто-кучевые, Ns - слоисто-дождевые, Cu - кучевые, Cb - кучево-дождевые. Подробнее классификацию облаков см. в Атласе облаков (PDF).
T - Температура воздуха - температура, измеренная на высоте 2 м над землей.
Td - Температура точки росы - температура, при понижении до которой содержащийся в воздухе водяной пар достигнет насыщения.
f - Относительная влажность воздуха - влажноcть воздуха, измеренная на высоте 2 м над землей.
Te - Эффективная температура - температура, которую ощущает одетый по сезону человек в тени. Характеристика душности погоды. При расчете учитывается влияние влажности воздуха и скорости ветра на теплоощущения человека.
Tes - Эффективная температура на солнце - температура, которую ощущает человек, с поправкой на солнечный нагрев. Характеристика знойности погоды. Зависит от высоты солнца над горизонтом, облачности и скорости ветра. Ночью, в пасмурную погоду, а также при ветре 12 м/с и более поправка равна нулю.
P - Атмосферное давление - приведенное к уровню моря атмосферное давление.
Po - Атмосферное давление - измеренное на уровне метеостанции атмосферное давление.
Tmin - Минимальная температура - минимум температуры воздуха на высоте 2 м над землей.
Tmax - Максимальная температура - максимум температуры воздуха на высоте 2 м над землей.
R - Количество осадков - Количество выпавших осадков, мм. При наведении курсора мыши на число - период времени, за который выпало указанное количество осадков.
S - Снежный покров - Высота снежного покрова, см. При наведении курсора мыши на число - состояние снежного покрова и степень покрытия местности в баллах.